Location: ?kun?ru
(16.3916°N, 80.8194°E)
Time: 14:08:31
(UTC+00:00)

CZ-4C R/B - Pass Details

Date: 19 May 2025
Orbit: 501 x 1483 km, 63.4° (Epoch: 17 June)

Event Time Altitude Azimuth Distance (km) Brightness Sun altitude
Rises 16:08:22 0° 336° (NNW) 4,199 6.6 -39.2°
Reaches altitude 10° 16:11:01 10° 337° (NNW) 3,335 5.9 -39.6°
Enters shadow 16:17:23 58° 346° (NNW) 1,627 3.6 -40.7°
